This is the latest recevied weather packets stored in our database for station/object AI5BL. If no packets are shown the sender has not sent any weather packets the latest 10 day(s).
| Time | Temp. | Humidity | Pressure | Rain* | Wind** | Luminosity | Snow |
|---|---|---|---|---|---|---|---|
| 1777765599 | 19.44° C | 47% | 1018.7 hPa | 0 mm | - | 21 W/m² | - |
| 1777765297 | 19.44° C | 48% | 1018.6 hPa | 0 mm | - | 22 W/m² | - |
| 1777764993 | 19.44° C | 46% | 1018.5 hPa | 0 mm | - | 23 W/m² | - |
| 1777764690 | 19.44° C | 46% | 1018.4 hPa | 0 mm | - | 28 W/m² | - |
| 1777764385 | 19.44° C | 48% | 1018.3 hPa | 0 mm | - | 25 W/m² | - |
| 1777764083 | 19.44° C | 47% | 1018.4 hPa | 0 mm | - | 26 W/m² | - |
| 1777763780 | 20° C | 47% | 1018.4 hPa | 0 mm | - | 27 W/m² | - |
| 1777763478 | 20° C | 44% | 1018.2 hPa | 0 mm | - | 28 W/m² | - |
| 1777763176 | 20° C | 45% | 1018.3 hPa | 0 mm | - | 28 W/m² | - |
| 1777762874 | 20° C | 41% | 1018.2 hPa | 0 mm | - | 29 W/m² | - |
| 1777762569 | 20° C | 43% | 1018.1 hPa | 0 mm | - | 30 W/m² | - |
| 1777762267 | 20° C | 42% | 1018.1 hPa | 0 mm | - | 30 W/m² | - |
| 1777761962 | 20° C | 42% | 1018.2 hPa | 0 mm | - | 31 W/m² | - |
| 1777761660 | 20° C | 46% | 1018 hPa | 0 mm | - | 31 W/m² | - |
| 1777761357 | 20° C | 46% | 1017.9 hPa | 0 mm | - | 32 W/m² | - |
| 1777761056 | 20° C | 44% | 1017.8 hPa | 0 mm | - | 32 W/m² | - |
| 1777760753 | 20° C | 40% | 1018 hPa | 0 mm | - | 44 W/m² | - |
| 1777760449 | 20° C | 43% | 1017.7 hPa | 0 mm | - | 47 W/m² | - |
| 1777760144 | 20.56° C | 41% | 1017.9 hPa | 0 mm | - | 50 W/m² | - |
| 1777759842 | 20.56° C | 41% | 1018 hPa | 0 mm | - | 144 W/m² | - |
| 1777759538 | 20.56° C | 41% | 1018 hPa | 0 mm | - | 90 W/m² | - |
| 1777759234 | 20.56° C | 38% | 1018 hPa | 0 mm | - | 49 W/m² | - |
| 1777758932 | 20.56° C | 39% | 1017.8 hPa | 0 mm | - | 41 W/m² | - |
| 1777758629 | 20.56° C | 41% | 1017.8 hPa | 0 mm | - | 43 W/m² | - |
| 1777758326 | 20.56° C | 42% | 1017.8 hPa | 0 mm | - | 43 W/m² | - |
* Rain latest hour (hover to see other rain measurements)
** Current wind speed in m/s (hover to see current wind gust speed)